Location: Tuttlingen
(47.9853°N, 8.8165°E)
Time: 08:59:36
(UTC+01:00)

OTV 5 (USA 277) - Visible Passes

Search period start: 19 February 2018 00:00
Search period end: 01 March 2018 00:00
Orbit: 404 x 417 km, 43.0° (Epoch: 07 September)

Date Brightness Start Highest point End Pass type
(mag) Time Alt. Az. Time Alt. Az. Time Alt. Az.
20 Feb ? 06:48:23 10° SSW 06:50:28 16° SSE 06:52:34 10° ESE visible
21 Feb ? 05:58:17 10° S 05:59:36 12° SSE 06:00:57 10° SE visible
22 Feb ? 06:42:35 10° SW 06:45:20 24° SSE 06:48:05 10° ESE visible
23 Feb ? 05:52:17 12° SSW 05:54:24 20° SSE 05:56:55 10° ESE visible
24 Feb ? 05:03:42 16° SSE 05:03:42 16° SSE 05:05:37 10° ESE visible
24 Feb ? 06:37:17 10° WSW 06:40:16 32° S 06:43:15 10° ESE visible
25 Feb ? 05:47:48 20° SSW 05:49:19 28° S 05:52:13 10° ESE visible
26 Feb ? 04:59:06 22° SE 04:59:06 22° SE 05:01:07 10° ESE visible
26 Feb ? 06:32:13 10° WSW 06:35:15 34° S 06:38:17 10° ESE visible
27 Feb ? 05:43:07 25° SW 05:44:17 34° S 05:47:19 10° ESE visible
28 Feb ? 04:54:23 25° SE 04:54:23 25° SE 04:56:18 10° ESE visible
28 Feb ? 06:27:19 10° WSW 06:30:14 29° S 06:33:08 10° SE visible
